STARLINK-32876, 63151

Orbit data source: Space-Track

STARLINK-32876, 63151 is a payload satellite owned by SpaceX/Seattle (US) in LEO that was launched on Mon, 03 Mar 2025 UTC via an FALCON 9 launch vehicle from the Air Force Eastern Test Range (AFETR). Payload-class satellites include a variety of spacecraft equipped with specific instruments for various scientific and technological missions. These include communications satellites like Starlink; space stations such as the ISS; scientific satellites like the Hubble; Earth observation satellites from companies like Planet Labs, Umbra, and HawkEye 360; GPS; miniature CubeSats for education and research; and military/defense satellites.

Loading next visibility...
Identifier
63151, 2025-043V
Orbit
LEO
Country
Flag of USUS
Related business
Manufacturer
SpaceX/Seattle
Mission
Operational Commercial Communications
Bus & Motor
STARLINK V2M, Unknown motor
Mass
730 kg wet, ~700 kg dry
Launch date (UTC)
2025-03-03 (1 year ago)
Launch vehicle
FALCON 9
Launch site
Air Force Eastern Test Range (AFETR)
Object type
Payload
Rocket body
Debris
Shape & HBR
Box + 2 Pan, 17.7 m
Radar Cross Section
33.884 m², Large (>1 m²)

Expand to show TLE details & history
Last TLE update: 10 hours ago

TLE from 10 hours ago
0 STARLINK-32876
1 63151U 25043V   26192.96357042  .00012369  00000-0  45810-3 0  9998
2 63151  42.9878  33.9544 0003968  45.5932 314.5244 15.27587699 76373
Epoch: 2026-07-11T23:07Z
TLE epoch observation values (Epoch: 2026-07-11T23:07:32.484Z)
Latitude
Longitude
117.19981°
Altitude
480.892 km
Speed
7.628 km/s
True Right ascension
02h 15m 49s
True Declination
0° 00' 00"
Sunlit
Object was in daylight at epoch
Visualization orbit readout
Latitude
Unknown
Longitude
Unknown
Altitude
Unknown
Speed
Unknown
Apparent Right ascension
Unknown
Apparent Declination
Unknown
Sunlit
N/A
Visualization observer readout
Local Sidereal Time
21:16:04
Azimuth
Unknown
Elevation
Unknown
Doppler factor
Unknown
Orbital elements
Apogee altitude
487.697 km
Perigee altitude
482.25 km
Semi-major axis
6,863.11 km
Eccentricity
0.0004
Inclination
42.9878°
RAAN
33.9544°
Arg. of periapsis
45.5932°
True anomaly
314.49197°
Mean anomaly
314.5244°
Eccentric anomaly
314.50819°
Mean motion
3.81735 °/min
Orbital period
94.31 mins
BSTAR
0.0004581
Loading maneuver chart data...
Computing Atmospheric mass density...
Loading historical data...
Loading historical data...
Loading historical data...
Loading historical data...
Loading historical data...
Loading historical data...
Loading historical data...

Documentation

Showing up to 5 results
|